Time,TemperatureF,DewpointF,PressureIn,WindDirection,WindDirectionDegrees,WindSpeedMPH,WindSpeedGustMPH,Humidity,HourlyPrecipIn,Conditions,Clouds,dailyrainin,SoftwareType,DateUTC
2013-12-11 00:00:00,24.3,21.6,30.30,NNE,29,0.0,1.0,89,0.00,,,0.68,meteohub,2013-12-11 05:00:00,
2013-12-11 00:01:00,24.3,21.6,30.30,NNE,29,0.0,1.0,89,0.00,,,0.68,meteohub,2013-12-11 05:01:00,
2013-12-11 00:02:00,24.3,21.7,30.30,NNE,29,1.0,1.0,90,0.00,,,0.68,meteohub,2013-12-11 05:02:00,
2013-12-11 00:07:00,24.3,21.7,30.30,NNE,29,0.0,1.0,90,0.00,,,0.68,meteohub,2013-12-11 05:07:00,
2013-12-11 00:12:00,24.3,21.7,30.30,NNE,29,0.0,1.0,90,0.00,,,0.00,meteohub,2013-12-11 05:12:00,
2013-12-11 00:17:00,24.3,21.7,30.30,NNE,29,0.0,2.0,90,0.00,,,0.00,meteohub,2013-12-11 05:17:00,
2013-12-11 00:22:00,24.3,21.6,30.30,NNE,29,0.0,2.0,89,0.00,,,0.00,meteohub,2013-12-11 05:22:00,
2013-12-11 00:27:00,24.3,21.7,30.30,NNE,29,1.0,2.0,90,0.00,,,0.00,meteohub,2013-12-11 05:27:00,
2013-12-11 00:32:00,24.4,21.9,30.30,NNE,29,0.0,1.0,90,0.00,,,0.00,meteohub,2013-12-11 05:32:00,
2013-12-11 00:37:00,24.4,21.7,30.30,NNE,29,1.0,1.0,89,0.00,,,0.00,meteohub,2013-12-11 05:37:00,
2013-12-11 00:42:00,24.4,21.9,30.30,NNE,29,0.0,1.0,90,0.00,,,0.00,meteohub,2013-12-11 05:42:00,
2013-12-11 00:47:00,24.3,21.6,30.30,NNE,29,2.0,2.0,89,0.00,,,0.00,meteohub,2013-12-11 05:47:00,
2013-12-11 00:52:00,24.4,21.7,30.30,NNE,29,0.0,2.0,89,0.00,,,0.00,meteohub,2013-12-11 05:52:00,
2013-12-11 00:57:00,24.4,21.7,30.30,NNE,29,0.0,2.0,89,0.00,,,0.00,meteohub,2013-12-11 05:57:00,
2013-12-11 01:02:00,24.4,21.4,30.30,NNE,29,0.0,2.0,88,0.00,,,0.00,meteohub,2013-12-11 06:02:00,
2013-12-11 01:07:00,24.4,21.7,30.30,NNE,29,1.0,2.0,89,0.00,,,0.00,meteohub,2013-12-11 06:07:00,
2013-12-11 01:12:00,24.4,21.7,30.30,NNE,29,0.0,2.0,89,0.00,,,0.00,meteohub,2013-12-11 06:12:00,
2013-12-11 01:17:00,24.4,21.2,30.30,NNE,29,0.0,2.0,87,0.00,,,0.00,meteohub,2013-12-11 06:17:00,
2013-12-11 01:22:00,24.6,21.0,30.30,NNE,29,0.0,2.0,86,0.00,,,0.00,meteohub,2013-12-11 06:22:00,
2013-12-11 01:27:00,24.4,21.4,30.31,NNE,29,0.0,2.0,88,0.00,,,0.00,meteohub,2013-12-11 06:27:00,
2013-12-11 01:32:00,24.4,20.8,30.31,NNE,29,0.0,2.0,86,0.00,,,0.00,meteohub,2013-12-11 06:32:00,
2013-12-11 01:37:00,24.4,20.8,30.31,NNE,29,0.0,2.0,86,0.00,,,0.00,meteohub,2013-12-11 06:37:00,
2013-12-11 01:42:00,24.4,21.2,30.31,NNE,29,0.0,0.0,87,0.00,,,0.00,meteohub,2013-12-11 06:42:00,
2013-12-11 01:47:00,24.4,21.4,30.31,NNE,29,0.0,0.0,88,0.00,,,0.00,meteohub,2013-12-11 06:47:00,
2013-12-11 01:52:00,24.3,21.2,30.31,NNE,29,0.0,0.0,88,0.00,,,0.00,meteohub,2013-12-11 06:52:00,
2013-12-11 01:57:00,24.3,20.1,30.31,NNE,29,0.0,0.0,84,0.00,,,0.00,meteohub,2013-12-11 06:57:00,
2013-12-11 02:02:00,24.3,21.0,30.31,NNE,29,0.0,0.0,87,0.00,,,0.00,meteohub,2013-12-11 07:02:00,
2013-12-11 02:07:00,24.3,21.0,30.32,NNE,29,0.0,0.0,87,0.00,,,0.00,meteohub,2013-12-11 07:07:00,
2013-12-11 02:12:00,24.3,20.5,30.32,NNE,29,0.0,0.0,85,0.00,,,0.00,meteohub,2013-12-11 07:12:00,
2013-12-11 02:17:00,24.3,20.7,30.32,NNE,29,0.0,0.0,86,0.00,,,0.00,meteohub,2013-12-11 07:17:00,
2013-12-11 02:22:00,24.3,21.0,30.33,NNE,29,0.0,0.0,87,0.00,,,0.00,meteohub,2013-12-11 07:22:00,
2013-12-11 02:28:00,24.1,20.8,30.33,NNE,29,0.0,0.0,87,0.00,,,0.00,meteohub,2013-12-11 07:28:00,
2013-12-11 02:33:00,23.7,20.1,30.33,NNE,29,0.0,0.0,86,0.00,,,0.00,meteohub,2013-12-11 07:33:00,
2013-12-11 02:38:00,23.5,19.8,30.33,NNE,29,0.0,0.0,85,0.00,,,0.00,meteohub,2013-12-11 07:38:00,
2013-12-11 02:43:00,23.4,19.6,30.34,NNE,29,0.0,0.0,85,0.00,,,0.00,meteohub,2013-12-11 07:43:00,
2013-12-11 02:48:00,23.2,19.4,30.34,NNE,29,0.0,0.0,85,0.00,,,0.00,meteohub,2013-12-11 07:48:00,
2013-12-11 02:53:00,23.2,19.9,30.34,NNE,29,0.0,0.0,87,0.00,,,0.00,meteohub,2013-12-11 07:53:00,
2013-12-11 02:58:00,23.0,19.9,30.35,NNE,29,0.0,0.0,88,0.00,,,0.00,meteohub,2013-12-11 07:58:00,
2013-12-11 03:03:00,22.8,19.6,30.35,NNE,29,0.0,1.0,87,0.00,,,0.00,meteohub,2013-12-11 08:03:00,
2013-12-11 03:08:00,22.8,19.8,30.36,NNE,29,0.0,1.0,88,0.00,,,0.00,meteohub,2013-12-11 08:08:00,
2013-12-11 03:13:00,22.8,20.1,30.36,NNE,29,0.0,1.0,89,0.00,,,0.00,meteohub,2013-12-11 08:13:00,
2013-12-11 03:18:00,22.8,20.1,30.37,NNE,29,0.0,1.0,89,0.00,,,0.00,meteohub,2013-12-11 08:18:00,
2013-12-11 03:23:00,22.6,19.9,30.37,NNE,29,0.0,1.0,89,0.00,,,0.00,meteohub,2013-12-11 08:23:00,
2013-12-11 03:28:00,22.6,20.1,30.37,NNE,29,0.0,1.0,90,0.00,,,0.00,meteohub,2013-12-11 08:28:00,
2013-12-11 03:33:00,22.6,19.9,30.37,NNE,29,0.0,0.0,89,0.00,,,0.00,meteohub,2013-12-11 08:33:00,
2013-12-11 03:38:00,22.8,20.1,30.37,NNE,29,0.0,0.0,89,0.00,,,0.00,meteohub,2013-12-11 08:38:00,
2013-12-11 03:43:00,22.8,20.1,30.37,NNE,29,0.0,0.0,89,0.00,,,0.00,meteohub,2013-12-11 08:43:00,
2013-12-11 03:48:00,22.6,19.9,30.37,NNE,29,0.0,0.0,89,0.00,,,0.00,meteohub,2013-12-11 08:48:00,
2013-12-11 03:53:00,22.6,19.9,30.37,NNE,29,0.0,0.0,89,0.00,,,0.00,meteohub,2013-12-11 08:53:00,
2013-12-11 03:58:00,22.8,20.1,30.37,NNE,29,0.0,0.0,89,0.00,,,0.00,meteohub,2013-12-11 08:58:00,
2013-12-11 04:04:00,22.8,20.1,30.38,NNE,29,0.0,0.0,89,0.00,,,0.00,meteohub,2013-12-11 09:04:00,
2013-12-11 04:09:00,22.8,20.1,30.38,NNE,29,0.0,0.0,89,0.00,,,0.00,meteohub,2013-12-11 09:09:00,
2013-12-11 04:14:00,22.8,20.1,30.38,NNE,29,0.0,0.0,89,0.00,,,0.00,meteohub,2013-12-11 09:14:00,
2013-12-11 04:19:00,22.6,19.9,30.38,NNE,29,0.0,0.0,89,0.00,,,0.00,meteohub,2013-12-11 09:19:00,
2013-12-11 04:24:00,22.6,19.6,30.38,NNE,29,0.0,0.0,88,0.00,,,0.00,meteohub,2013-12-11 09:24:00,
2013-12-11 04:29:00,22.6,19.6,30.38,NNE,29,0.0,0.0,88,0.00,,,0.00,meteohub,2013-12-11 09:29:00,
2013-12-11 04:34:00,22.6,19.9,30.38,NNE,29,0.0,0.0,89,0.00,,,0.00,meteohub,2013-12-11 09:34:00,
2013-12-11 04:39:00,22.5,19.8,30.38,NNE,29,0.0,0.0,89,0.00,,,0.00,meteohub,2013-12-11 09:39:00,
2013-12-11 04:44:00,22.3,19.6,30.38,NNE,29,0.0,0.0,89,0.00,,,0.00,meteohub,2013-12-11 09:44:00,
2013-12-11 04:49:00,22.3,19.6,30.38,NNE,29,0.0,0.0,89,0.00,,,0.00,meteohub,2013-12-11 09:49:00,
2013-12-11 04:54:00,22.3,19.6,30.38,NNE,29,0.0,1.0,89,0.00,,,0.00,meteohub,2013-12-11 09:54:00,
2013-12-11 04:59:00,22.3,19.6,30.38,NNE,29,0.0,1.0,89,0.00,,,0.00,meteohub,2013-12-11 09:59:00,
2013-12-11 05:04:00,22.3,19.6,30.38,NNE,29,0.0,1.0,89,0.00,,,0.00,meteohub,2013-12-11 10:04:00,
2013-12-11 05:09:00,22.3,19.6,30.39,NNE,29,0.0,0.0,89,0.00,,,0.00,meteohub,2013-12-11 10:09:00,
2013-12-11 05:14:00,22.5,19.8,30.39,NNE,29,0.0,0.0,89,0.00,,,0.00,meteohub,2013-12-11 10:14:00,
2013-12-11 05:19:00,22.3,19.6,30.39,NNE,29,0.0,0.0,89,0.00,,,0.00,meteohub,2013-12-11 10:19:00,
2013-12-11 05:24:00,22.3,19.6,30.39,NNE,29,0.0,0.0,89,0.00,,,0.00,meteohub,2013-12-11 10:24:00,
2013-12-11 05:29:00,22.3,19.6,30.39,NNE,29,0.0,0.0,89,0.00,,,0.00,meteohub,2013-12-11 10:29:00,
2013-12-11 05:34:00,22.5,19.4,30.39,NNE,29,0.0,0.0,88,0.00,,,0.00,meteohub,2013-12-11 10:34:00,
2013-12-11 05:40:00,22.5,19.2,30.39,NNE,29,0.0,0.0,87,0.00,,,0.00,meteohub,2013-12-11 10:40:00,
2013-12-11 05:45:00,22.6,19.4,30.39,NNE,29,0.0,1.0,87,0.00,,,0.00,meteohub,2013-12-11 10:45:00,
2013-12-11 05:50:00,22.6,19.6,30.39,NNE,29,0.0,1.0,88,0.00,,,0.00,meteohub,2013-12-11 10:50:00,
2013-12-11 05:55:00,22.6,19.9,30.38,NNE,29,0.0,0.0,89,0.00,,,0.00,meteohub,2013-12-11 10:55:00,
2013-12-11 06:00:00,22.6,19.9,30.38,NNE,29,0.0,0.0,89,0.00,,,0.00,meteohub,2013-12-11 11:00:00,
2013-12-11 06:05:00,22.5,19.8,30.38,NNE,29,0.0,0.0,89,0.00,,,0.00,meteohub,2013-12-11 11:05:00,
2013-12-11 06:10:00,22.5,19.8,30.38,NNE,29,0.0,0.0,89,0.00,,,0.00,meteohub,2013-12-11 11:10:00,
2013-12-11 06:15:00,22.3,19.2,30.38,NNE,29,0.0,0.0,88,0.00,,,0.00,meteohub,2013-12-11 11:15:00,
2013-12-11 06:20:00,22.5,19.4,30.38,NNE,29,0.0,0.0,88,0.00,,,0.00,meteohub,2013-12-11 11:20:00,
2013-12-11 06:25:00,22.5,19.8,30.38,NNE,29,0.0,0.0,89,0.00,,,0.00,meteohub,2013-12-11 11:25:00,
2013-12-11 06:30:00,22.5,19.4,30.38,NNE,29,0.0,1.0,88,0.00,,,0.00,meteohub,2013-12-11 11:30:00,
2013-12-11 06:35:00,22.5,19.2,30.38,NNE,29,0.0,1.0,87,0.00,,,0.00,meteohub,2013-12-11 11:35:00,
2013-12-11 06:40:00,22.5,19.2,30.39,NNE,29,0.0,0.0,87,0.00,,,0.00,meteohub,2013-12-11 11:40:00,
2013-12-11 06:45:00,22.5,19.2,30.39,NNE,29,0.0,0.0,87,0.00,,,0.00,meteohub,2013-12-11 11:45:00,
2013-12-11 06:50:00,22.5,19.2,30.39,NNE,29,0.0,0.0,87,0.00,,,0.00,meteohub,2013-12-11 11:50:00,
2013-12-11 06:55:00,22.5,19.4,30.40,NNE,29,0.0,0.0,88,0.00,,,0.00,meteohub,2013-12-11 11:55:00,
2013-12-11 07:01:00,22.3,19.2,30.40,NNE,29,0.0,0.0,88,0.00,,,0.00,meteohub,2013-12-11 12:01:00,
2013-12-11 07:06:00,22.3,19.0,30.40,NNE,29,0.0,0.0,87,0.00,,,0.00,meteohub,2013-12-11 12:06:00,
2013-12-11 07:11:00,22.5,19.4,30.41,NNE,29,0.0,2.0,88,0.00,,,0.00,meteohub,2013-12-11 12:11:00,
2013-12-11 07:16:00,22.5,19.2,30.41,NNE,29,0.0,2.0,87,0.00,,,0.00,meteohub,2013-12-11 12:16:00,
2013-12-11 07:21:00,22.6,19.6,30.41,NNE,29,1.0,2.0,88,0.00,,,0.00,meteohub,2013-12-11 12:21:00,
2013-12-11 07:26:00,22.6,19.0,30.41,NNE,29,1.0,2.0,86,0.00,,,0.00,meteohub,2013-12-11 12:26:00,
2013-12-11 07:31:00,22.6,19.4,30.41,NNE,29,0.0,2.0,87,0.00,,,0.00,meteohub,2013-12-11 12:31:00,
2013-12-11 07:36:00,22.5,19.4,30.41,NNE,29,0.0,2.0,88,0.00,,,0.00,meteohub,2013-12-11 12:36:00,
2013-12-11 07:41:00,22.3,19.2,30.42,NNE,29,0.0,2.0,88,0.00,,,0.00,meteohub,2013-12-11 12:41:00,
2013-12-11 07:46:00,22.3,19.2,30.42,NNE,29,1.0,2.0,88,0.00,,,0.00,meteohub,2013-12-11 12:46:00,
2013-12-11 07:51:00,22.3,19.6,30.43,NNE,29,0.0,1.0,89,0.00,,,0.00,meteohub,2013-12-11 12:51:00,
2013-12-11 07:56:00,22.3,19.6,30.43,NNE,29,1.0,1.0,89,0.00,,,0.00,meteohub,2013-12-11 12:56:00,
2013-12-11 08:01:00,22.3,19.6,30.43,NNE,29,0.0,2.0,89,0.00,,,0.00,meteohub,2013-12-11 13:01:00,
2013-12-11 08:06:00,22.5,19.8,30.43,NNE,29,0.0,2.0,89,0.00,,,0.00,meteohub,2013-12-11 13:06:00,
2013-12-11 08:11:00,22.5,19.8,30.43,NNE,29,1.0,1.0,89,0.00,,,0.00,meteohub,2013-12-11 13:11:00,
2013-12-11 08:16:00,22.6,19.9,30.43,NNE,29,0.0,1.0,89,0.00,,,0.00,meteohub,2013-12-11 13:16:00,
2013-12-11 08:21:00,22.6,19.9,30.43,NNE,29,0.0,1.0,89,0.00,,,0.00,meteohub,2013-12-11 13:21:00,
2013-12-11 08:26:00,22.5,19.8,30.43,NNE,29,0.0,1.0,89,0.00,,,0.00,meteohub,2013-12-11 13:26:00,
2013-12-11 08:32:00,22.5,19.8,30.44,NNE,29,0.0,2.0,89,0.00,,,0.00,meteohub,2013-12-11 13:32:00,
2013-12-11 08:37:00,22.6,19.9,30.43,NNE,29,0.0,2.0,89,0.00,,,0.00,meteohub,2013-12-11 13:37:00,
2013-12-11 08:42:00,22.8,20.3,30.43,NNE,29,1.0,2.0,90,0.00,,,0.00,meteohub,2013-12-11 13:42:00,
2013-12-11 08:47:00,23.0,20.5,30.43,NNE,29,0.0,2.0,90,0.00,,,0.00,meteohub,2013-12-11 13:47:00,
2013-12-11 08:52:00,23.2,20.7,30.43,NNE,29,0.0,2.0,90,0.00,,,0.00,meteohub,2013-12-11 13:52:00,
2013-12-11 08:57:00,23.2,20.7,30.44,NNE,29,0.0,2.0,90,0.00,,,0.00,meteohub,2013-12-11 13:57:00,
2013-12-11 09:02:00,23.0,20.5,30.44,NNE,29,0.0,2.0,90,0.00,,,0.00,meteohub,2013-12-11 14:02:00,
2013-12-11 09:07:00,23.0,20.3,30.44,NNE,29,0.0,2.0,89,0.00,,,0.00,meteohub,2013-12-11 14:07:00,
2013-12-11 09:12:00,23.0,20.3,30.45,NNE,29,0.0,0.0,89,0.00,,,0.00,meteohub,2013-12-11 14:12:00,
2013-12-11 09:17:00,23.0,20.3,30.45,NNE,29,0.0,0.0,89,0.00,,,0.00,meteohub,2013-12-11 14:17:00,
2013-12-11 09:22:00,23.0,20.5,30.45,NNE,29,0.0,2.0,90,0.00,,,0.00,meteohub,2013-12-11 14:22:00,
2013-12-11 09:27:00,23.2,20.5,30.46,NNE,29,0.0,2.0,89,0.00,,,0.00,meteohub,2013-12-11 14:27:00,
2013-12-11 09:32:00,23.0,20.3,30.46,NNE,29,0.0,2.0,89,0.00,,,0.00,meteohub,2013-12-11 14:32:00,
2013-12-11 09:37:00,23.2,20.5,30.47,NNE,29,0.0,2.0,89,0.00,,,0.00,meteohub,2013-12-11 14:37:00,
2013-12-11 09:42:00,23.2,20.1,30.47,NNE,29,0.0,1.0,88,0.00,,,0.00,meteohub,2013-12-11 14:42:00,
2013-12-11 09:47:00,23.4,20.3,30.48,NNE,29,0.0,1.0,88,0.00,,,0.00,meteohub,2013-12-11 14:47:00,
2013-12-11 09:52:00,23.5,19.9,30.48,NNE,29,0.0,0.0,86,0.00,,,0.00,meteohub,2013-12-11 14:52:00,
2013-12-11 09:57:00,24.3,21.0,30.48,NNE,29,0.0,0.0,87,0.00,,,0.00,meteohub,2013-12-11 14:57:00,
2013-12-11 10:02:00,25.0,21.7,30.48,NNE,30,0.0,1.0,87,0.00,,,0.00,meteohub,2013-12-11 15:02:00,
2013-12-11 10:07:00,25.5,21.9,30.48,NNE,30,1.0,1.0,86,0.00,,,0.00,meteohub,2013-12-11 15:07:00,
2013-12-11 10:12:00,26.4,22.8,30.48,NNE,30,0.0,3.0,86,0.00,,,0.00,meteohub,2013-12-11 15:12:00,
2013-12-11 10:17:00,27.3,22.3,30.48,NNE,30,1.0,3.0,81,0.00,,,0.00,meteohub,2013-12-11 15:17:00,
2013-12-11 10:22:00,28.0,22.1,30.47,NNE,30,0.0,2.0,78,0.00,,,0.00,meteohub,2013-12-11 15:22:00,
2013-12-11 10:27:00,28.6,23.2,30.47,ENE,65,0.0,2.0,80,0.00,,,0.00,meteohub,2013-12-11 15:27:00,
2013-12-11 10:32:00,28.9,22.3,30.47,ENE,65,0.0,3.0,76,0.00,,,0.00,meteohub,2013-12-11 15:32:00,
2013-12-11 10:37:00,29.3,23.4,30.46,ENE,65,2.0,3.0,78,0.00,,,0.00,meteohub,2013-12-11 15:37:00,
2013-12-11 10:42:00,29.8,24.1,30.46,ENE,65,0.0,3.0,79,0.00,,,0.00,meteohub,2013-12-11 15:42:00,
2013-12-11 10:47:00,30.6,24.3,30.46,ENE,65,0.0,3.0,77,0.00,,,0.00,meteohub,2013-12-11 15:47:00,
2013-12-11 10:52:00,30.9,23.4,30.46,ENE,65,0.0,2.0,73,0.00,,,0.00,meteohub,2013-12-11 15:52:00,
2013-12-11 10:57:00,31.5,24.8,30.46,ENE,65,2.0,2.0,76,0.00,,,0.00,meteohub,2013-12-11 15:57:00,
2013-12-11 11:02:00,31.8,24.1,30.46,ENE,65,1.0,3.0,73,0.00,,,0.00,meteohub,2013-12-11 16:02:00,
2013-12-11 11:07:00,32.2,24.8,30.46,ENE,66,0.0,3.0,74,0.00,,,0.00,meteohub,2013-12-11 16:07:00,
2013-12-11 11:12:00,32.5,25.5,30.46,ENE,65,1.0,3.0,75,0.00,,,0.00,meteohub,2013-12-11 16:12:00,
2013-12-11 11:17:00,33.3,25.9,30.46,ENE,65,1.0,3.0,74,0.00,,,0.00,meteohub,2013-12-11 16:17:00,
2013-12-11 11:22:00,33.6,25.2,30.46,ENE,67,3.0,3.0,71,0.00,,,0.00,meteohub,2013-12-11 16:22:00,
2013-12-11 11:27:00,34.3,25.9,30.46,ENE,66,0.0,3.0,71,0.00,,,0.00,meteohub,2013-12-11 16:27:00,
2013-12-11 11:32:00,34.9,25.3,30.46,ENE,78,0.0,3.0,68,0.00,,,0.00,meteohub,2013-12-11 16:32:00,
2013-12-11 11:37:00,35.4,25.5,30.45,East,84,1.0,4.0,67,0.00,,,0.00,meteohub,2013-12-11 16:37:00,
2013-12-11 11:42:00,36.1,26.2,30.45,East,84,1.0,4.0,67,0.00,,,0.00,meteohub,2013-12-11 16:42:00,
2013-12-11 11:47:00,36.9,25.9,30.45,East,88,1.0,4.0,64,0.00,,,0.00,meteohub,2013-12-11 16:47:00,
2013-12-11 11:52:00,37.9,27.7,30.45,SSW,194,1.0,4.0,66,0.00,,,0.00,meteohub,2013-12-11 16:52:00,
2013-12-11 11:57:00,38.8,23.2,30.45,SW,216,1.0,4.0,53,0.00,,,0.00,meteohub,2013-12-11 16:57:00,
2013-12-11 12:02:00,40.5,19.2,30.45,WNW,299,2.0,4.0,42,0.00,,,0.00,meteohub,2013-12-11 17:02:00,
2013-12-11 12:07:00,41.5,15.3,30.44,WNW,299,1.0,4.0,34,0.00,,,0.00,meteohub,2013-12-11 17:07:00,
2013-12-11 12:12:00,42.4,14.0,30.44,South,188,1.0,4.0,31,0.00,,,0.00,meteohub,2013-12-11 17:12:00,
2013-12-11 12:17:00,43.0,17.8,30.44,South,180,1.0,7.0,36,0.00,,,0.00,meteohub,2013-12-11 17:17:00,
2013-12-11 12:22:00,43.5,14.9,30.43,South,181,4.0,7.0,31,0.00,,,0.00,meteohub,2013-12-11 17:22:00,
2013-12-11 12:27:00,44.1,13.1,30.43,SSE,160,2.0,7.0,28,0.00,,,0.00,meteohub,2013-12-11 17:27:00,
2013-12-11 12:32:00,44.1,15.3,30.42,SSW,192,3.0,7.0,31,0.00,,,0.00,meteohub,2013-12-11 17:32:00,
2013-12-11 12:37:00,44.1,13.1,30.43,SSW,202,1.0,7.0,28,0.00,,,0.00,meteohub,2013-12-11 17:37:00,
2013-12-11 12:42:00,44.1,12.2,30.42,West,271,2.0,7.0,27,0.00,,,0.00,meteohub,2013-12-11 17:42:00,
2013-12-11 12:47:00,44.4,14.9,30.42,South,182,3.0,8.0,30,0.00,,,0.00,meteohub,2013-12-11 17:47:00,
2013-12-11 12:52:00,44.6,15.8,30.42,WNW,292,1.0,8.0,31,0.00,,,0.00,meteohub,2013-12-11 17:52:00,
2013-12-11 12:57:00,44.8,14.5,30.42,SSW,198,3.0,7.0,29,0.00,,,0.00,meteohub,2013-12-11 17:57:00,
2013-12-11 13:02:00,44.6,14.4,30.41,WSW,246,2.0,7.0,29,0.00,,,0.00,meteohub,2013-12-11 18:02:00,
2013-12-11 13:07:00,44.6,12.7,30.41,SW,222,3.0,7.0,27,0.00,,,0.00,meteohub,2013-12-11 18:07:00,
2013-12-11 13:12:00,44.6,15.1,30.41,South,177,2.0,7.0,30,0.00,,,0.00,meteohub,2013-12-11 18:12:00,
2013-12-11 13:17:00,44.8,17.4,30.40,South,179,0.0,8.0,33,0.00,,,0.00,meteohub,2013-12-11 18:17:00,
2013-12-11 13:22:00,44.8,16.0,30.41,SE,144,2.0,8.0,31,0.00,,,0.00,meteohub,2013-12-11 18:22:00,
2013-12-11 13:27:00,44.8,16.0,30.41,South,169,2.0,6.0,31,0.00,,,0.00,meteohub,2013-12-11 18:27:00,
2013-12-11 13:32:00,44.8,13.6,30.41,South,188,2.0,6.0,28,0.00,,,0.00,meteohub,2013-12-11 18:32:00,
2013-12-11 13:37:00,44.8,14.5,30.41,South,172,2.0,6.0,29,0.00,,,0.00,meteohub,2013-12-11 18:37:00,
2013-12-11 13:42:00,44.4,15.6,30.41,SSW,196,0.0,6.0,31,0.00,,,0.00,meteohub,2013-12-11 18:42:00,
2013-12-11 13:47:00,44.4,16.3,30.41,WSW,251,2.0,8.0,32,0.00,,,0.00,meteohub,2013-12-11 18:47:00,
2013-12-11 13:52:00,44.2,15.4,30.40,SSE,163,2.0,8.0,31,0.00,,,0.00,meteohub,2013-12-11 18:52:00,
2013-12-11 13:57:00,44.2,14.0,30.40,SSW,199,3.0,6.0,29,0.00,,,0.00,meteohub,2013-12-11 18:57:00,
2013-12-11 14:02:00,44.1,16.7,30.40,SSW,198,2.0,6.0,33,0.00,,,0.00,meteohub,2013-12-11 19:02:00,
2013-12-11 14:07:00,44.2,17.6,30.40,SSE,157,0.0,6.0,34,0.00,,,0.00,meteohub,2013-12-11 19:07:00,
2013-12-11 14:12:00,44.2,18.3,30.40,South,184,6.0,6.0,35,0.00,,,0.00,meteohub,2013-12-11 19:12:00,
2013-12-11 14:17:00,44.4,17.1,30.40,ESE,119,1.0,7.0,33,0.00,,,0.00,meteohub,2013-12-11 19:17:00,
2013-12-11 14:22:00,44.8,18.1,30.39,SSE,152,4.0,7.0,34,0.00,,,0.00,meteohub,2013-12-11 19:22:00,
2013-12-11 14:27:00,44.6,19.9,30.39,West,260,1.0,7.0,37,0.00,,,0.00,meteohub,2013-12-11 19:27:00,
2013-12-11 14:32:00,44.2,14.0,30.39,South,190,2.0,7.0,29,0.00,,,0.00,meteohub,2013-12-11 19:32:00,
2013-12-11 14:37:00,44.1,19.4,30.39,WNW,293,2.0,5.0,37,0.00,,,0.00,meteohub,2013-12-11 19:37:00,
2013-12-11 14:42:00,43.5,20.1,30.39,West,273,2.0,8.0,39,0.00,,,0.00,meteohub,2013-12-11 19:42:00,
2013-12-11 14:47:00,43.3,20.1,30.38,SSW,208,2.0,8.0,39,0.00,,,0.00,meteohub,2013-12-11 19:47:00,
2013-12-11 14:52:00,42.6,16.2,30.39,SSE,150,2.0,8.0,34,0.00,,,0.00,meteohub,2013-12-11 19:52:00,
2013-12-11 14:57:00,42.6,22.8,30.39,West,266,4.0,9.0,45,0.00,,,0.00,meteohub,2013-12-11 19:57:00,
2013-12-11 15:02:00,41.5,23.7,30.38,SW,232,2.0,9.0,49,0.00,,,0.00,meteohub,2013-12-11 20:02:00,
2013-12-11 15:07:00,40.5,22.3,30.39,WNW,286,1.0,9.0,48,0.00,,,0.00,meteohub,2013-12-11 20:07:00,
2013-12-11 15:12:00,40.3,22.6,30.38,WSW,245,3.0,9.0,49,0.00,,,0.00,meteohub,2013-12-11 20:12:00,
2013-12-11 15:17:00,39.7,23.5,30.38,SW,229,1.0,6.0,52,0.00,,,0.00,meteohub,2013-12-11 20:17:00,
2013-12-11 15:22:00,39.7,22.6,30.38,WSW,258,2.0,6.0,50,0.00,,,0.00,meteohub,2013-12-11 20:22:00,
2013-12-11 15:27:00,39.4,23.7,30.38,SSW,200,4.0,5.0,53,0.00,,,0.00,meteohub,2013-12-11 20:27:00,
2013-12-11 15:32:00,39.0,25.5,30.39,West,259,3.0,5.0,58,0.00,,,0.00,meteohub,2013-12-11 20:32:00,
2013-12-11 15:37:00,38.7,23.9,30.39,SW,236,3.0,5.0,55,0.00,,,0.00,meteohub,2013-12-11 20:37:00,
2013-12-11 15:42:00,38.1,25.5,30.39,West,263,3.0,5.0,60,0.00,,,0.00,meteohub,2013-12-11 20:42:00,
2013-12-11 15:47:00,38.1,25.0,30.39,WSW,252,4.0,5.0,59,0.00,,,0.00,meteohub,2013-12-11 20:47:00,
2013-12-11 15:52:00,38.3,24.4,30.40,WSW,248,2.0,5.0,57,0.00,,,0.00,meteohub,2013-12-11 20:52:00,
2013-12-11 15:57:00,38.1,25.0,30.40,West,273,4.0,5.0,59,0.00,,,0.00,meteohub,2013-12-11 20:57:00,
2013-12-11 16:02:00,37.9,25.3,30.40,WNW,284,3.0,5.0,60,0.00,,,0.00,meteohub,2013-12-11 21:02:00,
2013-12-11 16:07:00,37.6,23.7,30.40,West,278,2.0,5.0,57,0.00,,,0.00,meteohub,2013-12-11 21:07:00,
2013-12-11 16:12:00,37.4,25.5,30.40,West,263,2.0,5.0,62,0.00,,,0.00,meteohub,2013-12-11 21:12:00,
2013-12-11 16:17:00,37.2,24.6,30.40,WSW,238,3.0,5.0,60,0.00,,,0.00,meteohub,2013-12-11 21:17:00,
2013-12-11 16:22:00,37.6,23.4,30.40,WSW,252,2.0,5.0,56,0.00,,,0.00,meteohub,2013-12-11 21:22:00,
2013-12-11 16:27:00,37.2,24.3,30.40,West,277,2.0,5.0,59,0.00,,,0.00,meteohub,2013-12-11 21:27:00,
2013-12-11 16:32:00,37.2,23.7,30.40,WNW,296,4.0,5.0,58,0.00,,,0.00,meteohub,2013-12-11 21:32:00,
2013-12-11 16:37:00,37.0,26.1,30.40,West,259,3.0,5.0,64,0.00,,,0.00,meteohub,2013-12-11 21:37:00,
2013-12-11 16:42:00,36.7,26.8,30.39,West,267,2.0,5.0,67,0.00,,,0.00,meteohub,2013-12-11 21:42:00,
2013-12-11 16:47:00,36.1,25.5,30.39,West,264,3.0,5.0,65,0.00,,,0.00,meteohub,2013-12-11 21:47:00,
2013-12-11 16:52:00,36.0,25.7,30.39,West,276,2.0,5.0,66,0.00,,,0.00,meteohub,2013-12-11 21:52:00,
2013-12-11 16:57:00,36.0,25.3,30.39,West,261,2.0,4.0,65,0.00,,,0.00,meteohub,2013-12-11 21:57:00,
2013-12-11 17:02:00,35.8,25.2,30.39,WSW,244,3.0,4.0,65,0.00,,,0.00,meteohub,2013-12-11 22:02:00,
2013-12-11 17:07:00,36.0,23.0,30.39,WSW,254,0.0,4.0,59,0.00,,,0.00,meteohub,2013-12-11 22:07:00,
2013-12-11 17:12:00,36.7,25.0,30.39,West,264,2.0,4.0,62,0.00,,,0.00,meteohub,2013-12-11 22:12:00,
2013-12-11 17:17:00,36.3,23.7,30.39,West,259,2.0,4.0,60,0.00,,,0.00,meteohub,2013-12-11 22:17:00,
2013-12-11 17:22:00,36.5,24.3,30.39,SW,222,2.0,4.0,61,0.00,,,0.00,meteohub,2013-12-11 22:22:00,
2013-12-11 17:27:00,36.3,24.1,30.39,West,263,4.0,5.0,61,0.00,,,0.00,meteohub,2013-12-11 22:27:00,
2013-12-11 17:32:00,36.5,21.4,30.39,West,265,4.0,5.0,54,0.00,,,0.00,meteohub,2013-12-11 22:32:00,
2013-12-11 17:37:00,37.0,20.1,30.40,West,265,1.0,5.0,50,0.00,,,0.00,meteohub,2013-12-11 22:37:00,
2013-12-11 17:42:00,37.6,20.7,30.40,WSW,249,3.0,5.0,50,0.00,,,0.00,meteohub,2013-12-11 22:42:00,
2013-12-11 17:47:00,37.6,20.1,30.40,WSW,250,3.0,5.0,49,0.00,,,0.00,meteohub,2013-12-11 22:47:00,
2013-12-11 17:52:00,37.9,21.0,30.39,SW,222,2.0,5.0,50,0.00,,,0.00,meteohub,2013-12-11 22:52:00,
2013-12-11 17:57:00,37.9,19.6,30.39,SSW,211,3.0,5.0,47,0.00,,,0.00,meteohub,2013-12-11 22:57:00,
2013-12-11 18:02:00,37.6,20.1,30.40,West,260,2.0,5.0,49,0.00,,,0.00,meteohub,2013-12-11 23:02:00,
2013-12-11 18:07:00,37.0,20.1,30.40,SW,236,2.0,4.0,50,0.00,,,0.00,meteohub,2013-12-11 23:07:00,
2013-12-11 18:12:00,36.7,22.8,30.40,WSW,244,2.0,4.0,57,0.00,,,0.00,meteohub,2013-12-11 23:12:00,
2013-12-11 18:17:00,36.9,18.0,30.39,West,263,3.0,5.0,46,0.00,,,0.00,meteohub,2013-12-11 23:17:00,
2013-12-11 18:22:00,37.0,15.4,30.40,West,273,5.0,5.0,41,0.00,,,0.00,meteohub,2013-12-11 23:22:00,
2013-12-11 18:27:00,37.6,19.6,30.40,West,276,2.0,5.0,48,0.00,,,0.00,meteohub,2013-12-11 23:27:00,
2013-12-11 18:32:00,36.5,19.6,30.40,SSW,202,2.0,11.0,50,0.00,,,0.00,meteohub,2013-12-11 23:32:00,
2013-12-11 18:37:00,36.3,20.8,30.40,WSW,248,1.0,11.0,53,0.00,,,0.00,meteohub,2013-12-11 23:37:00,
2013-12-11 18:42:00,36.0,21.7,30.40,WSW,253,2.0,5.0,56,0.00,,,0.00,meteohub,2013-12-11 23:42:00,
2013-12-11 18:47:00,35.2,19.4,30.40,WSW,257,0.0,5.0,52,0.00,,,0.00,meteohub,2013-12-11 23:47:00,
2013-12-11 18:52:00,35.6,17.8,30.40,West,261,2.0,5.0,48,0.00,,,0.00,meteohub,2013-12-11 23:52:00,
2013-12-11 18:57:00,35.2,21.2,30.40,West,261,1.0,5.0,56,0.00,,,0.00,meteohub,2013-12-11 23:57:00,
2013-12-11 19:02:00,34.9,23.2,30.40,WSW,257,3.0,5.0,62,0.00,,,0.00,meteohub,2013-12-12 00:02:00,
2013-12-11 19:07:00,34.3,21.6,30.40,WSW,252,1.0,5.0,59,0.00,,,0.00,meteohub,2013-12-12 00:07:00,
2013-12-11 19:12:00,34.3,16.7,30.40,West,261,3.0,4.0,48,0.00,,,0.00,meteohub,2013-12-12 00:12:00,
2013-12-11 19:17:00,34.7,21.0,30.40,WSW,244,2.0,5.0,57,0.00,,,0.00,meteohub,2013-12-12 00:17:00,
2013-12-11 19:22:00,34.2,20.1,30.40,WSW,244,2.0,5.0,56,0.00,,,0.00,meteohub,2013-12-12 00:22:00,
2013-12-11 19:27:00,33.6,22.8,30.40,WSW,244,2.0,5.0,64,0.00,,,0.00,meteohub,2013-12-12 00:27:00,
2013-12-11 19:32:00,33.3,22.5,30.40,WSW,248,3.0,4.0,64,0.00,,,0.00,meteohub,2013-12-12 00:32:00,
2013-12-11 19:37:00,33.1,22.3,30.40,SW,225,2.0,3.0,64,0.00,,,0.00,meteohub,2013-12-12 00:37:00,
2013-12-11 19:42:00,33.1,22.6,30.40,WSW,237,3.0,3.0,65,0.00,,,0.00,meteohub,2013-12-12 00:42:00,
2013-12-11 19:47:00,33.4,20.7,30.40,SSW,198,0.0,3.0,59,0.00,,,0.00,meteohub,2013-12-12 00:47:00,
2013-12-11 19:52:00,33.6,21.9,30.40,SSW,208,2.0,8.0,62,0.00,,,0.00,meteohub,2013-12-12 00:52:00,
2013-12-11 19:57:00,33.1,23.7,30.40,West,265,2.0,8.0,68,0.00,,,0.00,meteohub,2013-12-12 00:57:00,
2013-12-11 20:02:00,32.9,22.1,30.40,WSW,248,2.0,8.0,64,0.00,,,0.00,meteohub,2013-12-12 01:02:00,
2013-12-11 20:07:00,32.7,22.6,30.40,West,271,1.0,8.0,66,0.00,,,0.00,meteohub,2013-12-12 01:07:00,
2013-12-11 20:13:00,32.5,22.1,30.40,WNW,296,3.0,6.0,65,0.00,,,0.00,meteohub,2013-12-12 01:13:00,
2013-12-11 20:18:00,33.1,20.7,30.40,West,281,5.0,7.0,60,0.00,,,0.00,meteohub,2013-12-12 01:18:00,
2013-12-11 20:23:00,33.4,20.3,30.40,WNW,284,2.0,7.0,58,0.00,,,0.00,meteohub,2013-12-12 01:23:00,
2013-12-11 20:28:00,33.6,19.6,30.40,West,265,4.0,7.0,56,0.00,,,0.00,meteohub,2013-12-12 01:28:00,
2013-12-11 20:33:00,34.0,18.1,30.40,SSE,147,1.0,5.0,52,0.00,,,0.00,meteohub,2013-12-12 01:33:00,
2013-12-11 20:38:00,34.0,20.3,30.40,SSW,208,2.0,5.0,57,0.00,,,0.00,meteohub,2013-12-12 01:38:00,
2013-12-11 20:43:00,33.4,22.3,30.40,WSW,247,2.0,6.0,63,0.00,,,0.00,meteohub,2013-12-12 01:43:00,
2013-12-11 20:48:00,33.3,20.1,30.40,WSW,247,3.0,6.0,58,0.00,,,0.00,meteohub,2013-12-12 01:48:00,
2013-12-11 20:53:00,33.3,20.5,30.39,NW,310,1.0,6.0,59,0.00,,,0.00,meteohub,2013-12-12 01:53:00,
2013-12-11 20:58:00,33.1,21.0,30.40,WNW,284,4.0,6.0,61,0.00,,,0.00,meteohub,2013-12-12 01:58:00,
2013-12-11 21:03:00,32.5,19.8,30.39,West,275,4.0,6.0,59,0.00,,,0.00,meteohub,2013-12-12 02:03:00,
2013-12-11 21:08:00,32.5,20.7,30.40,West,265,3.0,6.0,61,0.00,,,0.00,meteohub,2013-12-12 02:08:00,
2013-12-11 21:13:00,32.5,21.0,30.40,West,269,2.0,5.0,62,0.00,,,0.00,meteohub,2013-12-12 02:13:00,
2013-12-11 21:18:00,32.4,21.2,30.40,West,264,3.0,4.0,63,0.00,,,0.00,meteohub,2013-12-12 02:18:00,
2013-12-11 21:23:00,32.2,21.7,30.40,WNW,290,3.0,4.0,65,0.00,,,0.00,meteohub,2013-12-12 02:23:00,
2013-12-11 21:28:00,32.0,20.5,30.40,WSW,251,2.0,4.0,62,0.00,,,0.00,meteohub,2013-12-12 02:28:00,
2013-12-11 21:33:00,32.4,18.0,30.40,WSW,250,2.0,4.0,55,0.00,,,0.00,meteohub,2013-12-12 02:33:00,
2013-12-11 21:38:00,32.4,21.9,30.40,WSW,251,3.0,4.0,65,0.00,,,0.00,meteohub,2013-12-12 02:38:00,
2013-12-11 21:43:00,31.8,21.4,30.40,WNW,289,4.0,4.0,65,0.00,,,0.00,meteohub,2013-12-12 02:43:00,
2013-12-11 21:48:00,31.6,21.9,30.40,West,271,2.0,3.0,67,0.00,,,0.00,meteohub,2013-12-12 02:48:00,
2013-12-11 21:53:00,31.5,21.4,30.40,SW,232,2.0,4.0,66,0.00,,,0.00,meteohub,2013-12-12 02:53:00,
2013-12-11 21:58:00,31.3,21.2,30.39,SW,233,3.0,4.0,66,0.00,,,0.00,meteohub,2013-12-12 02:58:00,
2013-12-11 22:03:00,31.3,21.6,30.39,West,277,2.0,4.0,67,0.00,,,0.00,meteohub,2013-12-12 03:03:00,
2013-12-11 22:08:00,31.1,22.1,30.39,West,267,1.0,4.0,69,0.00,,,0.00,meteohub,2013-12-12 03:08:00,
2013-12-11 22:14:00,30.9,20.5,30.40,West,273,2.0,4.0,65,0.00,,,0.00,meteohub,2013-12-12 03:14:00,
2013-12-11 22:19:00,30.7,21.4,30.39,West,273,2.0,4.0,68,0.00,,,0.00,meteohub,2013-12-12 03:19:00,
2013-12-11 22:24:00,30.7,22.8,30.39,West,273,1.0,3.0,72,0.00,,,0.00,meteohub,2013-12-12 03:24:00,
2013-12-11 22:29:00,30.7,22.1,30.40,West,273,2.0,3.0,70,0.00,,,0.00,meteohub,2013-12-12 03:29:00,
2013-12-11 22:34:00,30.7,22.1,30.39,West,273,0.0,3.0,70,0.00,,,0.00,meteohub,2013-12-12 03:34:00,
2013-12-11 22:39:00,30.6,20.8,30.39,West,273,2.0,3.0,67,0.00,,,0.00,meteohub,2013-12-12 03:39:00,
2013-12-11 22:44:00,30.7,20.3,30.39,West,273,0.0,2.0,65,0.00,,,0.00,meteohub,2013-12-12 03:44:00,
2013-12-11 22:49:00,30.7,22.8,30.39,West,269,1.0,2.0,72,0.00,,,0.00,meteohub,2013-12-12 03:49:00,
2013-12-11 22:54:00,30.6,21.2,30.39,West,269,2.0,2.0,68,0.00,,,0.00,meteohub,2013-12-12 03:54:00,
2013-12-11 22:59:00,30.4,21.4,30.39,West,269,0.0,3.0,69,0.00,,,0.00,meteohub,2013-12-12 03:59:00,
2013-12-11 23:04:00,30.6,21.9,30.38,West,269,0.0,3.0,70,0.00,,,0.00,meteohub,2013-12-12 04:04:00,
2013-12-11 23:09:00,30.4,22.8,30.38,West,269,2.0,3.0,73,0.00,,,0.00,meteohub,2013-12-12 04:09:00,
2013-12-11 23:14:00,30.4,22.1,30.38,West,269,0.0,2.0,71,0.00,,,0.00,meteohub,2013-12-12 04:14:00,
2013-12-11 23:19:00,30.4,21.4,30.38,West,269,2.0,2.0,69,0.00,,,0.00,meteohub,2013-12-12 04:19:00,
2013-12-11 23:24:00,30.4,21.0,30.38,West,269,1.0,3.0,68,0.00,,,0.00,meteohub,2013-12-12 04:24:00,
2013-12-11 23:29:00,30.6,20.8,30.38,West,269,2.0,3.0,67,0.00,,,0.00,meteohub,2013-12-12 04:29:00,
2013-12-11 23:35:00,30.6,21.6,30.39,West,269,2.0,3.0,69,0.00,,,0.00,meteohub,2013-12-12 04:35:00,
2013-12-11 23:40:00,30.6,23.0,30.38,West,268,1.0,3.0,73,0.00,,,0.00,meteohub,2013-12-12 04:40:00,
2013-12-11 23:45:00,30.6,23.0,30.38,West,268,1.0,3.0,73,0.00,,,0.00,meteohub,2013-12-12 04:45:00,
2013-12-11 23:50:00,30.4,22.1,30.38,West,268,2.0,3.0,71,0.00,,,0.00,meteohub,2013-12-12 04:50:00,
2013-12-11 23:55:00,30.2,21.6,30.38,West,267,2.0,3.0,70,0.00,,,0.00,meteohub,2013-12-12 04:55:00,